QPF
0.06 0.08 0.10 0.12 0.09 0.09 0.10 0.12 0.12 0.16 0.20 0.19 0.15 0.11 0.11 0.12 0.11 0.13 0.15 0.12 0.06 0.05 0.06 0.06 0.07 0.08 0.08 0.07 0.07 0.07 0.07 0.10 0.12 0.11 0.09 0.07 0.06 0.07 0.09 0.08 0.05 0.04 0.05
0.07 0.07 0.08 0.09 0.08 0.08 0.09 0.09 0.07 0.09 0.13 0.15 0.12 0.09 0.08 0.08 0.10 0.11 0.13 0.14 0.09 0.06 0.06 0.06 0.07 0.08 0.08 0.08 0.07 0.08 0.07 0.08 0.11 0.11 0.10 0.09 0.08 0.08 0.08 0.08 0.07 0.06 0.05
0.06 0.06 0.06 0.06 0.06 0.06 0.06 0.07 0.06 0.06 0.07 0.10 0.09 0.07 0.09 0.10 0.09 0.11 0.11 0.15 0.13 0.10 0.09 0.07 0.06 0.06 0.05 0.06 0.07 0.07 0.07 0.06 0.07 0.08 0.08 0.10 0.13 0.11 0.08 0.07 0.07 0.08 0.07
0.03 0.04 0.04 0.03 0.05 0.05 0.05 0.05 0.06 0.06 0.06 0.08 0.08 0.08 0.11 0.14 0.12 0.12 0.12 0.14 0.13 0.13 0.12 0.09 0.07 0.06 0.06 0.05 0.05 0.05 0.06 0.05 0.05 0.05 0.06 0.08 0.10 0.10 0.08 0.08 0.08 0.07 0.07
0.02 0.02 0.03 0.04 0.04 0.04 0.04 0.04 0.05 0.05 0.05 0.06 0.06 0.07 0.09 0.12 0.13 0.12 0.10 0.10 0.10 0.10 0.09 0.07 0.06 0.06 0.06 0.05 0.04 0.04 0.04 0.04 0.05 0.06 0.07 0.08 0.07 0.07 0.09 0.10 0.10 0.09 0.08
0.02 0.03 0.03 0.03 0.03 0.03 0.05 0.05 0.05 0.05 0.05 0.06 0.04 0.06 0.08 0.11 0.12 0.13 0.11 0.12 0.11 0.07 0.08 0.07 0.06 0.06 0.06 0.05 0.05 0.06 0.06 0.05 0.05 0.06 0.06 0.07 0.08 0.08 0.09 0.10 0.11 0.10 0.09
0.02 0.02 0.03 0.04 0.04 0.03 0.04 0.04 0.06 0.06 0.04 0.04 0.06 0.09 0.10 0.09 0.11 0.11 0.10 0.13 0.10 0.07 0.07 0.08 0.06 0.05 0.05 0.05 0.06 0.07 0.08 0.08 0.07 0.06 0.05 0.06 0.07 0.07 0.07 0.07 0.09 0.10 0.10
0.01 0.01 0.03 0.03 0.03 0.04 0.04 0.04 0.05 0.05 0.03 0.04 0.06 0.09 0.10 0.12 0.12 0.11 0.10 0.13 0.10 0.10 0.09 0.08 0.08 0.06 0.05 0.05 0.04 0.05 0.06 0.07 0.07 0.07 0.07 0.06 0.06 0.07 0.09 0.10 0.09 0.11 0.13
0.01 0.02 0.03 0.03 0.04 0.03 0.05 0.06 0.05 0.04 0.04 0.05 0.05 0.07 0.10 0.13 0.13 0.12 0.12 0.11 0.10 0.10 0.09 0.09 0.11 0.10 0.07 0.07 0.06 0.05 0.04 0.04 0.05 0.05 0.04 0.04 0.04 0.05 0.06 0.09 0.10 0.11 0.13
0.04 0.03 0.03 0.03 0.04 0.04 0.04 0.04 0.04 0.05 0.06 0.05 0.06 0.06 0.08 0.12 0.11 0.14 0.13 0.12 0.11 0.09 0.07 0.07 0.09 0.14 0.10 0.09 0.07 0.05 0.04 0.03 0.02 0.03 0.03 0.03 0.04 0.03 0.03 0.03 0.05 0.06 0.07
0.04 0.05 0.05 0.06 0.05 0.05 0.04 0.03 0.04 0.04 0.06 0.05 0.05 0.06 0.06 0.09 0.10 0.11 0.12 0.12 0.11 0.08 0.06 0.07 0.08 0.12 0.08 0.06 0.07 0.06 0.05 0.05 0.03 0.03 0.03 0.03 0.04 0.04 0.03 0.03 0.04 0.05 0.06
0.06 0.06 0.07 0.07 0.05 0.05 0.04 0.03 0.03 0.03 0.04 0.04 0.04 0.05 0.05 0.06 0.06 0.09 0.09 0.09 0.08 0.06 0.04 0.05 0.06 0.07 0.06 0.05 0.06 0.05 0.05 0.04 0.04 0.04 0.04 0.04 0.05 0.04 0.04 0.04 0.04 0.05 0.05
0.08 0.07 0.06 0.06 0.06 0.04 0.03 0.03 0.03 0.03 0.03 0.04 0.04 0.04 0.03 0.03 0.03 0.04 0.06 0.06 0.05 0.04 0.05 0.04 0.04 0.04 0.04 0.05 0.06 0.04 0.03 0.02 0.03 0.04 0.04 0.05 0.05 0.06 0.06 0.05 0.05 0.05 0.05
0.06 0.07 0.06 0.05 0.03 0.03 0.03 0.04 0.03 0.03 0.03 0.03 0.02 0.03 0.03 0.02 0.03 0.04 0.07 0.08 0.06 0.07 0.07 0.06 0.04 0.05 0.05 0.05 0.04 0.04 0.03 0.03 0.02 0.02 0.03 0.04 0.04 0.04 0.04 0.06 0.07 0.07 0.06
0.05 0.05 0.04 0.04 0.04 0.04 0.04 0.05 0.03 0.03 0.04 0.02 0.02 0.04 0.03 0.03 0.02 0.03 0.04 0.07 0.06 0.08 0.08 0.08 0.07 0.07 0.06 0.06 0.06 0.04 0.03 0.03 0.03 0.02 0.02 0.03 0.03 0.04 0.03 0.04 0.06 0.07 0.07
0.04 0.03 0.03 0.03 0.05 0.04 0.04 0.05 0.04 0.03 0.03 0.03 0.04 0.04 0.03 0.02 0.02 0.02 0.02 0.03 0.04 0.05 0.07 0.07 0.06 0.07 0.06 0.05 0.07 0.05 0.05 0.04 0.03 0.03 0.02 0.02 0.02 0.03 0.04 0.04 0.04 0.06 0.05
0.04 0.03 0.03 0.03 0.04 0.04 0.04 0.04 0.04 0.03 0.03 0.04 0.03 0.03 0.03 0.03 0.03 0.02 0.01 0.01 0.02 0.03 0.04 0.05 0.04 0.05 0.04 0.06 0.08 0.07 0.06 0.05 0.04 0.04 0.03 0.02 0.02 0.02 0.03 0.03 0.03 0.04 0.05
0.05 0.04 0.03 0.03 0.03 0.03 0.04 0.04 0.04 0.03 0.04 0.05 0.05 0.05 0.04 0.04 0.04 0.03 0.02 0.02 0.02 0.03 0.03 0.04 0.03 0.03 0.03 0.04 0.06 0.07 0.07 0.06 0.05 0.06 0.04 0.02 0.02 0.02 0.02 0.02 0.03 0.03 0.04
0.05 0.05 0.04 0.03 0.03 0.03 0.04 0.04 0.04 0.04 0.05 0.05 0.06 0.05 0.04 0.04 0.04 0.03 0.03 0.02 0.02 0.02 0.03 0.04 0.03 0.02 0.02 0.02 0.03 0.04 0.05 0.05 0.04 0.05 0.05 0.03 0.02 0.02 0.02 0.02 0.02 0.03 0.05
0.06 0.06 0.06 0.05 0.03 0.03 0.03 0.05 0.05 0.04 0.04 0.04 0.04 0.04 0.04 0.04 0.04 0.04 0.03 0.03 0.04 0.04 0.04 0.04 0.04 0.03 0.02 0.02 0.02 0.03 0.03 0.03 0.03 0.03 0.05 0.05 0.03 0.02 0.01 0.01 0.02 0.03 0.06
0.05 0.06 0.06 0.06 0.06 0.04 0.03 0.04 0.04 0.04 0.04 0.05 0.05 0.04 0.04 0.05 0.05 0.04 0.02 0.03 0.03 0.03 0.03 0.04 0.04 0.04 0.04 0.03 0.03 0.03 0.03 0.03 0.03 0.03 0.04 0.05 0.04 0.03 0.01 0.01 0.01 0.01 0.03
0.04 0.04 0.05 0.05 0.04 0.03 0.03 0.02 0.02 0.03 0.04 0.04 0.04 0.05 0.04 0.04 0.04 0.05 0.04 0.03 0.02 0.03 0.03 0.04 0.03 0.04 0.04 0.04 0.04 0.04 0.03 0.04 0.05 0.04 0.04 0.04 0.04 0.04 0.03 0.02 0.02 0.02 0.02
0.04 0.04 0.04 0.03 0.03 0.03 0.02 0.02 0.02 0.02 0.03 0.04 0.03 0.05 0.04 0.03 0.03 0.04 0.03 0.02 0.02 0.02 0.02 0.03 0.03 0.03 0.04 0.04 0.05 0.04 0.04 0.04 0.04 0.04 0.04 0.04 0.05 0.06 0.05 0.04 0.04 0.02 0.02
0.04 0.04 0.04 0.04 0.04 0.03 0.03 0.02 0.02 0.02 0.02 0.02 0.03 0.04 0.04 0.03 0.02 0.02 0.02 0.02 0.02 0.02 0.02 0.02 0.02 0.02 0.02 0.03 0.03 0.03 0.03 0.03 0.04 0.05 0.05 0.04 0.04 0.05 0.05 0.04 0.03 0.02 0.01
0.03 0.03 0.04 0.04 0.04 0.04 0.05 0.03 0.01 0.01 0.02 0.02 0.02 0.03 0.02 0.02 0.01 0.01 0.01 0.02 0.02 0.02 0.01 0.01 0.01 0.01 0.02 0.02 0.02 0.03 0.03 0.05 0.06 0.07 0.06 0.04 0.04 0.04 0.04 0.04 0.03 0.02 0.02
0.02 0.02 0.03 0.02 0.02 0.02 0.04 0.04 0.02 0.02 0.02 0.02 0.03 0.03 0.03 0.02 0.01 0.01 0.01 0.01 0.01 0.02 0.02 0.02 0.02 0.02 0.02 0.02 0.03 0.03 0.04 0.05 0.07 0.08 0.06 0.05 0.04 0.04 0.05 0.06 0.06 0.06 0.04
MSLP
1012.47 1012.52 1012.50 1012.44 1012.36 1012.28 1012.20 1012.11 1012.02 1011.89 1011.74 1011.57 1011.42 1011.34 1011.37 1011.53 1011.84 1012.29 1012.82 1013.38 1013.91 1014.36 1014.70 1014.93 1015.07 1015.15 1015.20 1015.27 1015.37 1015.52 1015.69 1015.88 1016.08 1016.28 1016.47 1016.65 1016.82 1017.00 1017.18 1017.37 1017.55 1017.72 1017.88
1012.49 1012.56 1012.56 1012.51 1012.43 1012.34 1012.26 1012.17 1012.07 1011.96 1011.83 1011.70 1011.59 1011.53 1011.56 1011.69 1011.94 1012.30 1012.74 1013.21 1013.68 1014.10 1014.45 1014.73 1014.95 1015.12 1015.26 1015.39 1015.53 1015.69 1015.85 1016.01 1016.18 1016.34 1016.50 1016.67 1016.84 1017.02 1017.21 1017.39 1017.56 1017.72 1017.86
1012.48 1012.56 1012.58 1012.55 1012.49 1012.42 1012.34 1012.27 1012.19 1012.10 1012.01 1011.91 1011.83 1011.78 1011.79 1011.87 1012.04 1012.29 1012.60 1012.96 1013.34 1013.72 1014.07 1014.40 1014.70 1014.97 1015.21 1015.44 1015.64 1015.83 1016.00 1016.15 1016.29 1016.42 1016.56 1016.70 1016.86 1017.04 1017.22 1017.40 1017.57 1017.72 1017.85
1012.42 1012.50 1012.54 1012.54 1012.51 1012.47 1012.43 1012.38 1012.33 1012.28 1012.23 1012.16 1012.10 1012.06 1012.04 1012.06 1012.13 1012.25 1012.43 1012.66 1012.94 1013.25 1013.59 1013.96 1014.33 1014.69 1015.05 1015.38 1015.66 1015.91 1016.10 1016.26 1016.38 1016.49 1016.61 1016.73 1016.88 1017.05 1017.22 1017.40 1017.57 1017.71 1017.84
1012.29 1012.36 1012.42 1012.46 1012.48 1012.49 1012.50 1012.50 1012.49 1012.48 1012.46 1012.43 1012.39 1012.34 1012.29 1012.24 1012.22 1012.22 1012.27 1012.38 1012.54 1012.78 1013.09 1013.47 1013.89 1014.34 1014.79 1015.21 1015.58 1015.89 1016.13 1016.31 1016.44 1016.55 1016.65 1016.76 1016.90 1017.05 1017.22 1017.39 1017.56 1017.70 1017.84
1012.10 1012.16 1012.24 1012.32 1012.41 1012.48 1012.55 1012.61 1012.66 1012.69 1012.71 1012.70 1012.67 1012.62 1012.54 1012.45 1012.34 1012.25 1012.18 1012.17 1012.24 1012.40 1012.65 1013.01 1013.45 1013.94 1014.46 1014.95 1015.41 1015.78 1016.08 1016.30 1016.46 1016.58 1016.69 1016.80 1016.92 1017.07 1017.23 1017.40 1017.56 1017.70 1017.84
1011.89 1011.95 1012.05 1012.18 1012.32 1012.47 1012.61 1012.73 1012.82 1012.89 1012.94 1012.95 1012.94 1012.89 1012.80 1012.67 1012.52 1012.36 1012.22 1012.12 1012.09 1012.16 1012.35 1012.66 1013.07 1013.57 1014.11 1014.65 1015.15 1015.59 1015.94 1016.22 1016.42 1016.58 1016.71 1016.84 1016.97 1017.11 1017.27 1017.42 1017.57 1017.72 1017.86
1011.71 1011.76 1011.89 1012.06 1012.27 1012.48 1012.67 1012.84 1012.97 1013.07 1013.14 1013.17 1013.17 1013.13 1013.05 1012.93 1012.77 1012.58 1012.40 1012.24 1012.14 1012.13 1012.24 1012.47 1012.82 1013.27 1013.79 1014.33 1014.85 1015.32 1015.73 1016.06 1016.33 1016.54 1016.71 1016.87 1017.02 1017.17 1017.33 1017.47 1017.61 1017.75 1017.88
1011.60 1011.64 1011.78 1011.99 1012.24 1012.49 1012.73 1012.93 1013.09 1013.20 1013.27 1013.31 1013.32 1013.31 1013.26 1013.18 1013.06 1012.90 1012.72 1012.54 1012.40 1012.33 1012.35 1012.48 1012.73 1013.09 1013.53 1014.02 1014.52 1015.00 1015.44 1015.83 1016.15 1016.43 1016.67 1016.87 1017.06 1017.22 1017.38 1017.52 1017.64 1017.76 1017.89
1011.55 1011.58 1011.72 1011.95 1012.22 1012.50 1012.75 1012.96 1013.11 1013.21 1013.28 1013.32 1013.36 1013.39 1013.40 1013.39 1013.35 1013.26 1013.14 1012.99 1012.84 1012.72 1012.65 1012.68 1012.81 1013.04 1013.36 1013.75 1014.19 1014.64 1015.09 1015.51 1015.89 1016.23 1016.53 1016.79 1017.01 1017.21 1017.37 1017.50 1017.62 1017.72 1017.83
1011.53 1011.55 1011.68 1011.90 1012.17 1012.44 1012.68 1012.87 1013.00 1013.08 1013.13 1013.18 1013.25 1013.33 1013.43 1013.53 1013.60 1013.63 1013.60 1013.51 1013.39 1013.24 1013.11 1013.02 1013.01 1013.09 1013.27 1013.53 1013.87 1014.26 1014.67 1015.10 1015.51 1015.90 1016.25 1016.57 1016.84 1017.06 1017.24 1017.37 1017.48 1017.57 1017.66
1011.50 1011.50 1011.61 1011.81 1012.05 1012.29 1012.49 1012.64 1012.73 1012.78 1012.81 1012.87 1012.98 1013.13 1013.33 1013.56 1013.77 1013.94 1014.04 1014.05 1013.97 1013.83 1013.64 1013.46 1013.32 1013.24 1013.26 1013.37 1013.57 1013.86 1014.21 1014.61 1015.02 1015.43 1015.82 1016.17 1016.48 1016.73 1016.93 1017.07 1017.18 1017.26 1017.34
1011.40 1011.39 1011.47 1011.63 1011.83 1012.02 1012.17 1012.26 1012.31 1012.32 1012.35 1012.42 1012.57 1012.81 1013.12 1013.48 1013.85 1014.17 1014.41 1014.53 1014.53 1014.41 1014.20 1013.94 1013.67 1013.45 1013.30 1013.25 1013.31 1013.47 1013.73 1014.05 1014.43 1014.83 1015.22 1015.59 1015.91 1016.19 1016.40 1016.56 1016.67 1016.76 1016.84
1011.22 1011.20 1011.26 1011.38 1011.53 1011.67 1011.76 1011.81 1011.81 1011.79 1011.81 1011.91 1012.10 1012.42 1012.84 1013.33 1013.84 1014.31 1014.69 1014.92 1015.00 1014.92 1014.70 1014.40 1014.04 1013.70 1013.41 1013.20 1013.11 1013.13 1013.26 1013.49 1013.78 1014.13 1014.49 1014.85 1015.17 1015.45 1015.68 1015.85 1015.98 1016.08 1016.17
1010.98 1010.96 1011.01 1011.10 1011.21 1011.30 1011.35 1011.35 1011.32 1011.29 1011.32 1011.43 1011.67 1012.06 1012.57 1013.16 1013.79 1014.38 1014.87 1015.21 1015.36 1015.33 1015.13 1014.80 1014.39 1013.96 1013.55 1013.22 1012.99 1012.87 1012.86 1012.97 1013.16 1013.41 1013.71 1014.01 1014.31 1014.58 1014.81 1015.00 1015.15 1015.27 1015.38
1010.72 1010.72 1010.77 1010.86 1010.95 1011.01 1011.04 1011.01 1010.96 1010.93 1010.96 1011.10 1011.38 1011.81 1012.38 1013.04 1013.74 1014.41 1014.97 1015.37 1015.59 1015.61 1015.44 1015.12 1014.69 1014.22 1013.75 1013.32 1012.98 1012.74 1012.60 1012.57 1012.63 1012.77 1012.96 1013.18 1013.42 1013.66 1013.88 1014.07 1014.25 1014.39 1014.53
1010.50 1010.54 1010.62 1010.72 1010.82 1010.89 1010.90 1010.88 1010.83 1010.81 1010.85 1011.00 1011.30 1011.75 1012.33 1013.01 1013.73 1014.41 1015.00 1015.43 1015.68 1015.73 1015.61 1015.32 1014.92 1014.45 1013.97 1013.51 1013.10 1012.77 1012.52 1012.35 1012.28 1012.28 1012.35 1012.47 1012.62 1012.80 1012.99 1013.18 1013.37 1013.54 1013.70
1010.35 1010.45 1010.58 1010.73 1010.86 1010.94 1010.98 1010.97 1010.95 1010.93 1010.99 1011.15 1011.44 1011.88 1012.43 1013.08 1013.76 1014.40 1014.96 1015.38 1015.64 1015.72 1015.64 1015.41 1015.07 1014.65 1014.21 1013.76 1013.34 1012.96 1012.63 1012.36 1012.15 1012.02 1011.95 1011.94 1012.00 1012.10 1012.24 1012.41 1012.59 1012.78 1012.96
1010.29 1010.46 1010.66 1010.86 1011.04 1011.17 1011.24 1011.26 1011.26 1011.27 1011.34 1011.49 1011.76 1012.15 1012.65 1013.22 1013.81 1014.37 1014.86 1015.24 1015.47 1015.57 1015.53 1015.37 1015.12 1014.80 1014.44 1014.06 1013.67 1013.28 1012.91 1012.57 1012.26 1012.00 1011.80 1011.67 1011.61 1011.62 1011.69 1011.82 1011.98 1012.17 1012.35
1010.28 1010.52 1010.79 1011.05 1011.29 1011.46 1011.58 1011.65 1011.68 1011.71 1011.79 1011.93 1012.17 1012.50 1012.92 1013.38 1013.86 1014.31 1014.70 1015.00 1015.20 1015.29 1015.29 1015.21 1015.06 1014.86 1014.62 1014.35 1014.04 1013.70 1013.33 1012.95 1012.56 1012.20 1011.89 1011.63 1011.46 1011.37 1011.36 1011.43 1011.56 1011.72 1011.90
1010.26 1010.56 1010.89 1011.21 1011.50 1011.73 1011.89 1012.00 1012.06 1012.13 1012.21 1012.35 1012.56 1012.84 1013.16 1013.52 1013.88 1014.21 1014.49 1014.70 1014.84 1014.93 1014.96 1014.95 1014.91 1014.84 1014.74 1014.59 1014.39 1014.12 1013.79 1013.41 1012.99 1012.56 1012.16 1011.80 1011.53 1011.34 1011.25 1011.24 1011.31 1011.44 1011.59
1010.17 1010.52 1010.90 1011.26 1011.59 1011.85 1012.05 1012.20 1012.30 1012.39 1012.50 1012.65 1012.84 1013.07 1013.33 1013.60 1013.85 1014.07 1014.24 1014.37 1014.46 1014.52 1014.57 1014.62 1014.68 1014.72 1014.75 1014.73 1014.65 1014.48 1014.22 1013.87 1013.45 1013.00 1012.54 1012.11 1011.75 1011.48 1011.30 1011.23 1011.23 1011.30 1011.41
1009.96 1010.35 1010.75 1011.14 1011.49 1011.78 1012.00 1012.18 1012.32 1012.45 1012.60 1012.77 1012.96 1013.18 1013.41 1013.61 1013.79 1013.92 1014.01 1014.06 1014.09 1014.12 1014.18 1014.26 1014.38 1014.52 1014.65 1014.75 1014.78 1014.71 1014.53 1014.25 1013.86 1013.41 1012.93 1012.47 1012.06 1011.73 1011.49 1011.34 1011.28 1011.29 1011.34
1009.66 1010.06 1010.47 1010.86 1011.20 1011.50 1011.74 1011.94 1012.11 1012.29 1012.48 1012.70 1012.93 1013.17 1013.39 1013.58 1013.72 1013.80 1013.82 1013.81 1013.79 1013.78 1013.82 1013.91 1014.06 1014.25 1014.45 1014.63 1014.74 1014.76 1014.67 1014.46 1014.13 1013.73 1013.28 1012.82 1012.40 1012.04 1011.75 1011.56 1011.44 1011.39 1011.37
1009.32 1009.71 1010.10 1010.47 1010.79 1011.07 1011.31 1011.53 1011.74 1011.97 1012.22 1012.49 1012.78 1013.07 1013.33 1013.53 1013.67 1013.72 1013.71 1013.66 1013.59 1013.54 1013.54 1013.60 1013.73 1013.93 1014.15 1014.36 1014.53 1014.62 1014.61 1014.48 1014.24 1013.90 1013.52 1013.11 1012.71 1012.36 1012.06 1011.84 1011.68 1011.57 1011.51
1009.01 1009.38 1009.73 1010.06 1010.35 1010.60 1010.83 1011.05 1011.29 1011.56 1011.87 1012.22 1012.58 1012.93 1013.24 1013.49 1013.65 1013.71 1013.68 1013.60 1013.49 1013.39 1013.33 1013.34 1013.42 1013.58 1013.78 1013.99 1014.19 1014.32 1014.37 1014.31 1014.16 1013.92 1013.62 1013.29 1012.96 1012.65 1012.38 1012.16 1011.98 1011.84 1011.72
Thickness
5791 5790 5788 5787 5787 5785 5783 5781 5781 5781 5781 5780 5779 5778 5776 5775 5774 5771 5768 5767 5767 5765 5764 5763 5761 5760 5758 5757 5756 5755 5754 5753 5753 5752 5751 5750 5749 5748 5747 5746 5745 5744 5742
5791 5790 5788 5787 5786 5785 5784 5782 5781 5780 5779 5779 5778 5778 5776 5775 5773 5771 5768 5766 5765 5763 5762 5761 5760 5758 5757 5756 5755 5755 5754 5753 5752 5751 5750 5749 5748 5747 5746 5745 5744 5743 5742
5791 5789 5787 5786 5785 5785 5783 5782 5781 5779 5778 5777 5776 5776 5775 5774 5773 5771 5768 5765 5763 5761 5760 5759 5758 5757 5756 5755 5754 5754 5753 5752 5751 5750 5749 5748 5747 5746 5745 5744 5744 5743 5742
5790 5789 5787 5785 5785 5784 5782 5780 5778 5776 5775 5774 5773 5774 5773 5772 5770 5769 5768 5765 5763 5761 5758 5757 5756 5755 5754 5753 5753 5752 5751 5751 5750 5749 5747 5746 5745 5744 5743 5743 5743 5742 5741
5790 5788 5786 5785 5785 5783 5781 5779 5776 5774 5772 5772 5772 5773 5772 5771 5770 5769 5767 5765 5763 5760 5758 5756 5754 5753 5753 5752 5751 5750 5749 5748 5747 5746 5745 5744 5743 5742 5741 5741 5740 5740 5739
5789 5787 5786 5784 5783 5780 5777 5775 5772 5772 5770 5770 5771 5771 5770 5771 5770 5767 5766 5764 5761 5759 5757 5755 5753 5751 5750 5750 5749 5748 5747 5745 5744 5743 5742 5742 5741 5740 5739 5739 5739 5738 5738
5789 5786 5784 5782 5780 5777 5774 5773 5770 5768 5767 5768 5764 5762 5765 5768 5767 5766 5765 5763 5760 5758 5756 5754 5752 5751 5749 5748 5747 5746 5745 5743 5742 5741 5739 5739 5738 5738 5738 5737 5737 5737 5736
5787 5785 5781 5779 5777 5774 5771 5770 5768 5764 5764 5766 5760 5755 5752 5754 5759 5764 5762 5759 5757 5756 5755 5753 5752 5750 5748 5746 5745 5743 5742 5741 5740 5738 5737 5736 5736 5736 5735 5735 5735 5735 5734
5785 5782 5780 5777 5775 5773 5769 5767 5766 5762 5759 5761 5762 5754 5746 5742 5747 5754 5756 5756 5755 5753 5752 5751 5749 5747 5745 5744 5742 5740 5739 5738 5737 5736 5734 5733 5733 5733 5733 5733 5733 5732 5731
5782 5779 5777 5774 5772 5770 5767 5765 5764 5761 5758 5755 5756 5756 5753 5748 5740 5739 5746 5750 5750 5748 5748 5748 5746 5744 5742 5741 5739 5738 5736 5734 5733 5732 5731 5731 5730 5730 5730 5729 5729 5728 5727
5780 5776 5773 5771 5768 5766 5764 5762 5761 5758 5756 5752 5750 5750 5749 5747 5744 5737 5733 5738 5741 5743 5744 5743 5741 5739 5738 5736 5735 5733 5732 5730 5729 5728 5727 5727 5726 5725 5725 5725 5724 5724 5723
5777 5773 5771 5767 5764 5762 5760 5759 5757 5755 5752 5750 5748 5746 5743 5740 5737 5735 5731 5730 5730 5734 5737 5737 5736 5735 5733 5731 5730 5728 5727 5726 5725 5724 5723 5722 5721 5721 5721 5720 5720 5719 5719
5772 5768 5767 5763 5761 5759 5757 5756 5753 5750 5748 5745 5743 5742 5741 5739 5739 5735 5730 5727 5726 5728 5730 5731 5732 5730 5729 5727 5724 5723 5722 5721 5720 5719 5719 5718 5717 5716 5716 5715 5715 5715 5714
5770 5767 5763 5761 5758 5756 5755 5752 5749 5747 5745 5743 5741 5738 5737 5736 5735 5733 5728 5724 5719 5719 5721 5722 5725 5725 5724 5722 5720 5719 5718 5717 5716 5715 5714 5714 5713 5712 5711 5711 5710 5710 5710
5768 5764 5761 5757 5755 5753 5750 5747 5744 5742 5740 5738 5735 5734 5732 5731 5731 5729 5727 5723 5715 5708 5709 5714 5716 5719 5719 5717 5715 5714 5714 5713 5711 5711 5710 5709 5708 5708 5707 5706 5705 5705 5704
5764 5761 5757 5755 5752 5750 5746 5743 5740 5738 5734 5732 5730 5728 5726 5726 5725 5725 5723 5721 5717 5711 5706 5709 5711 5713 5713 5712 5710 5710 5709 5708 5707 5706 5705 5705 5704 5703 5702 5701 5701 5700 5700
5760 5757 5754 5750 5747 5745 5742 5738 5735 5733 5729 5726 5725 5723 5720 5720 5719 5718 5717 5715 5712 5708 5702 5704 5707 5707 5706 5705 5704 5704 5703 5702 5701 5701 5700 5700 5699 5698 5697 5697 5696 5695 5695
5757 5753 5750 5746 5743 5740 5737 5733 5729 5727 5724 5721 5719 5717 5715 5715 5712 5711 5710 5708 5706 5704 5699 5696 5698 5699 5699 5699 5698 5697 5698 5697 5697 5696 5696 5696 5695 5694 5693 5692 5691 5690 5690
5752 5749 5746 5742 5738 5736 5732 5729 5725 5722 5720 5717 5714 5711 5710 5708 5706 5704 5703 5701 5700 5700 5696 5693 5692 5692 5692 5692 5691 5691 5691 5691 5691 5691 5691 5690 5689 5689 5688 5687 5686 5685 5685
5746 5743 5741 5738 5734 5731 5728 5725 5721 5717 5715 5712 5710 5708 5706 5703 5701 5699 5698 5695 5694 5691 5690 5687 5685 5685 5684 5684 5683 5681 5681 5682 5683 5684 5684 5683 5683 5682 5682 5682 5681 5680 5679
5742 5738 5735 5732 5730 5727 5724 5719 5715 5713 5709 5706 5704 5703 5701 5699 5697 5694 5692 5689 5687 5684 5683 5681 5678 5677 5675 5674 5673 5674 5673 5674 5676 5677 5677 5677 5677 5676 5676 5675 5674 5674 5673
5736 5732 5729 5726 5724 5722 5717 5713 5709 5707 5704 5701 5698 5697 5696 5694 5692 5689 5687 5684 5682 5679 5676 5673 5671 5669 5669 5668 5668 5668 5666 5665 5665 5669 5669 5669 5671 5669 5669 5669 5668 5668 5667
5729 5726 5723 5721 5717 5714 5710 5706 5703 5701 5699 5696 5694 5692 5691 5691 5687 5684 5681 5679 5677 5676 5673 5670 5667 5665 5664 5664 5662 5661 5660 5658 5659 5662 5661 5660 5663 5662 5663 5662 5662 5661 5660
5725 5721 5718 5715 5712 5708 5703 5699 5697 5696 5694 5692 5690 5688 5685 5683 5681 5678 5676 5674 5672 5670 5669 5667 5665 5663 5663 5661 5658 5656 5655 5655 5656 5657 5656 5652 5655 5656 5657 5656 5655 5654 5653
5719 5716 5714 5711 5707 5703 5698 5693 5690 5689 5689 5688 5686 5684 5681 5678 5675 5672 5670 5667 5666 5665 5665 5663 5661 5659 5657 5655 5653 5650 5648 5646 5645 5648 5649 5647 5648 5648 5649 5650 5649 5648 5647
5714 5711 5708 5706 5702 5698 5693 5688 5684 5683 5682 5681 5681 5679 5676 5673 5669 5666 5663 5661 5659 5659 5658 5657 5655 5653 5652 5650 5648 5645 5643 5639 5638 5638 5642 5640 5640 5639 5639 5643 5643 5642 5640